127  
NZUS99 KSGF 181807  
HRRSGF  
 
HOURLY WEATHER  
NATIONAL WEATHER SERVICE SPRINGFIELD MO  
100 PM CDT MON JUN 18 2018  
   
.....SGF CWA...
 
 
 
CITY SKY/WX TMP DP RH WIND PRES REMARKS  
SPRINGFIELD MOSUNNY 90 70 51 S12G24 30.08F HX 95  
6HR MIN TEMP: 76; 6HR MAX TEMP: 90;  
 
JOPLIN PTSUNNY 87 71 58 S16G22 30.07F HX 93  
6HR MIN TEMP: 77; 6HR MAX TEMP: 87;  
 
WEST PLAINS MOSUNNY 85 69 58 S6 30.13F  
6HR MIN TEMP: 75; 6HR MAX TEMP: 87;  
 
ROLLA SUNNY 88 73 61 SW8 30.09F HX 95  
6HR MIN TEMP: 75; 6HR MAX TEMP: 88;  
 
OSAGE BEACH PTSUNNY 90 71 53 VRB3 30.06F HX 96  
BRANSON MOSUNNY 90 66 45 S9 30.12F HX 92  
   
.....SURROUNDING SGF CWA...
 
 
 
CITY SKY/WX TMP DP RH WIND PRES REMARKS  
CHANUTE PTSUNNY 85 74 69 S14G22 30.04F HX 92  
PARSONS PTSUNNY 85 74 69 S13G20 30.05F HX 92  
COFFEYVILLE PTSUNNY 86 73 65 S14 30.03F HX 93  
EMPORIA MOSUNNY 89 73 59 S15G25 30.01F HX 97  
GROVE OK PTSUNNY 86 68 54 S9 30.08F  
ROGERS AR CLOUDY 85 68 56 S10 30.11F  
SILOAM SPRINGS CLOUDY 85 69 58 S9 30.10F  
HARRISON AR CLOUDY 84 67 56 S9 30.13F  
NEAR YELLVILLE CLOUDY 86 71 60 S6 30.11F HX 91  
   
.....KANSAS AND MISSOURI...
 
 
 
CITY SKY/WX TMP DP RH WIND PRES REMARKS  
KANSAS CTY INT MOSUNNY 91 72 53 S13 30.01F HX 98  
DOWNTOWN KC PTSUNNY 91 70 49 SW9 29.99F HX 96  
COLUMBIA MOSUNNY 93 70 46 SW13 30.05F HX 99  
SEDALIA SUNNY 92 73 53 S14G21 30.05F HX 100  
ST JOSEPH SUNNY 93 73 52 S13 29.97F HX 102  
ST LOUIS MOSUNNY 93 71 48 W9 30.05F HX 100  
SPIRIT OF STL MOSUNNY 93 73 52 VRB6 30.03F HX 102  
KIRKSVILLE MOSUNNY 92 73 53 SW8 30.02F HX 100  
WICHITA MOSUNNY 94 71 47 S16G24 29.98F HX 101  
TOPEKA SUNNY 92 74 55 S14 29.98F HX 101  
OLATHE MOSUNNY 87 72 60 S9 30.02F HX 93  
   
.....TENNESSEE...
 
 
 
CITY SKY/WX TMP DP RH WIND PRES REMARKS  
MEMPHIS FAIR 91 68 46 SW6 30.13F HX 95  
NASHVILLE PTSUNNY 89 71 55 NW5 30.14F HX 95  
   
.....ARKANSAS....
 
 
 
CITY SKY/WX TMP DP RH WIND PRES REMARKS  
FAYETTEVILLE PTSUNNY 83 68 60 S12 30.10F  
FT SMITH PTSUNNY 89 68 49 S9G20 30.06F HX 93  
LITTLE ROCK PTSUNNY 85 71 63 S6 30.10F HX 90  
   
.....OKLAHOMA....
 
 
 
CITY SKY/WX TMP DP RH WIND PRES REMARKS  
TULSA CLOUDY 88 73 61 SE13 30.01F HX 95  
PONCA CITY PTSUNNY 88 70 55 SE16 30.00F HX 93  
MCALESTER CLOUDY 83 70 64 SE7 30.05F  
OKLAHOMA CITY PTSUNNY 87 70 56 SE14G20 30.02F HX 92  
   
.....IOWA.........
 
 
 
CITY SKY/WX TMP DP RH WIND PRES REMARKS  
DES MOINES MOSUNNY 92 73 53 SW15 29.94F HX 100  
QUAD CITIES FAIR 92 73 53 W16G24 29.96F HX 100  
   
.....ILLINOIS.....
 
 
 
CITY SKY/WX TMP DP RH WIND PRES REMARKS  
QUINCY MOSUNNY 95 70 44 S13G22 30.01F HX 101  
CHICAGO FAIR 92 70 48 W14G23 29.94F HX 97  
 
 
 
CLICK HERE TO GO TO PREVIOUS BULLETINS.

The Nexlab MO Page
The Nexlab KS Page Main Text Page